Weather History for Santa Ana, CA

Change the Weather History Date:

Friday, January 17, 2014

  Actual Average Record
Temperature  
Mean Temperature 69 °F 57 °F  
Max Temperature 85 °F 67 °F 85 °F (2014)
Min Temperature 52 °F 47 °F 41 °F (2007)
Degree Days  
Heating Degree Days 0 8  
Month to date heating degree days 71 147  
Since 1 July heating degree days 340 579  
Cooling Degree Days 4 0  
Month to date cooling degree days 27 0  
Year to date cooling degree days 27 0  
Growing Degree Days 18 (Base 50)    
Moisture  
Dew Point 26 °F    
Average Humidity 22    
Maximum Humidity 38    
Minimum Humidity 6    
Precipitation  
Precipitation 0.00 in 0.09 in 1.42 in (1988)
Month to date precipitation 0.00 1.96  
Year to date precipitation 0.00 1.96  
Since 1 July precipitation 1.05 6.33  
Snow  
Snow 0.00 in - - ()
Month to date snowfall 0.0  
Year to date snowfall 0.0  
Since 1 July snowfall 0.0  
Snow Depth 0.00 in    
Sea Level Pressure  
Sea Level Pressure 30.06 in    
Wind  
Wind Speed 2 mph (WSW)    
Max Wind Speed 9 mph    
Max Gust Speed 12 mph    
Visibility 10 miles    
Events      
T = Trace of Precipitation, MM = Missing Value Source: NWS Daily Summary

Daily Weather History Graph

Daily Weather History Graph

Search for Another Location

Airport:

Trip Planner

Search our weather history database for the weather conditions in past years. The results will help you decide how hot, cold, wet, or windy it might be!

Date:

Astronomy

Jan. 17, 2014 Rise Set
Actual Time 6:55 AM PST 5:08 PM PST
Civil Twilight 6:28 AM PST 5:35 PM PST
Nautical Twilight 5:58 AM PST 6:05 PM PST
Astronomical Twilight 5:28 AM PST 6:35 PM PST
Moon 6:51 PM PST (1/17) 7:32 AM PST (1/17)
Length of Visible Light 11h 06m
Length of Day
10h 12m
Full, 98% of the Moon is Illuminated
Jan 17
Full
Jan 23
Last Quarter
Jan 30
New
Feb 6
First Quarter
Feb 14
Full

Hourly Weather History & Observations

Time (PST) Temp. Dew Point Humidity Pressure Visibility Wind Dir Wind Speed Gust Speed Precip Events Conditions
12:53 AM 63.0 °F 17.1 °F 17% 30.05 in 10.0 mi SW 4.6 mph - N/A   Clear
1:53 AM 59.0 °F 23.0 °F 25% 30.06 in 10.0 mi Calm Calm - N/A   Clear
2:53 AM 57.0 °F 25.0 °F 29% 30.06 in 10.0 mi Calm Calm - N/A   Clear
3:53 AM 55.9 °F 26.1 °F 32% 30.06 in 10.0 mi Calm Calm - N/A   Clear
4:53 AM 53.1 °F 26.1 °F 35% 30.07 in 10.0 mi Calm Calm - N/A   Clear
5:53 AM 54.0 °F 27.0 °F 35% 30.07 in 10.0 mi Calm Calm - N/A   Clear
6:53 AM 52.0 °F 27.0 °F 38% 30.09 in 10.0 mi SSW 4.6 mph - N/A   Clear
7:53 AM 59.0 °F 30.0 °F 33% 30.09 in 10.0 mi Calm Calm - N/A   Clear
8:53 AM 66.0 °F 30.9 °F 27% 30.11 in 10.0 mi Calm Calm - N/A   Clear
9:53 AM 72.0 °F 28.0 °F 20% 30.12 in 10.0 mi Calm Calm - N/A   Clear
10:53 AM 78.1 °F 28.0 °F 16% 30.10 in 10.0 mi WNW 3.5 mph - N/A   Clear
11:53 AM 81.0 °F 16.0 °F 9% 30.06 in 10.0 mi Variable 4.6 mph - N/A   Clear
12:53 PM 84.0 °F 14.0 °F 7% 30.03 in 10.0 mi West 5.8 mph - N/A   Partly Cloudy
1:53 PM 84.9 °F 10.9 °F 6% 30.02 in 10.0 mi SW 6.9 mph - N/A   Partly Cloudy
2:53 PM 82.9 °F 21.0 °F 10% 30.01 in 10.0 mi WSW 6.9 mph - N/A   Partly Cloudy
3:53 PM 79.0 °F 25.0 °F 14% 30.02 in 10.0 mi WSW 6.9 mph - N/A   Partly Cloudy
4:53 PM 73.9 °F 30.0 °F 20% 30.03 in 10.0 mi Variable 3.5 mph - N/A   Scattered Clouds
5:53 PM 72.0 °F 30.0 °F 21% 30.05 in 10.0 mi Calm Calm - N/A   Partly Cloudy
6:53 PM 68.0 °F 32.0 °F 26% 30.05 in 10.0 mi Calm Calm - N/A   Partly Cloudy
7:53 PM 64.9 °F 33.1 °F 31% 30.05 in 10.0 mi Calm Calm - N/A   Partly Cloudy
8:53 PM 63.0 °F 30.9 °F 30% 30.05 in 10.0 mi Calm Calm - N/A   Partly Cloudy
9:53 PM 61.0 °F 32.0 °F 34% 30.05 in 10.0 mi Calm Calm - N/A   Partly Cloudy
10:53 PM 59.0 °F 32.0 °F 36% 30.05 in 10.0 mi Calm Calm - N/A   Scattered Clouds
11:53 PM 55.9 °F 33.1 °F 42% 30.04 in 10.0 mi Calm Calm - N/A   Clear